GW1972 Weather Reports


time (UTC)temp
F
wind
direction
speed
knots
gust
knots
rain 1hr
in
rain 24hr
in
rain mn
in
humidity
%
barometer
mb
20260503213427 63 257 5.2 14.8 0.00 0.12 0.12 48 984.3
20260503211929 63 128 4.3 15.6 0.00 0.12 0.12 47 984.6
20260503211426 63 80 3.5 12.2 0.00 0.12 0.12 49 984.7
20260503210928 63 96 5.2 16.5 0.00 0.12 0.12 46 984.8
20260503205926 65 59 5.2 16.5 0.00 0.12 0.12 45 984.9
20260503204928 64 20 7.0 16.5 0.00 0.12 0.12 48 984.9
20260503203927 63 30 8.7 16.5 0.00 0.12 0.12 47 985.1
20260503203426 62 69 7.0 18.2 0.00 0.12 0.12 48 985.0
20260503202927 62 283 10.4 18.2 0.00 0.12 0.12 46 985.1
20260503202426 63 49 7.8 17.4 0.00 0.12 0.12 47 985.0
20260503201927 64 99 7.0 15.6 0.00 0.12 0.12 48 984.9
20260503201426 63 76 7.8 15.6 0.00 0.12 0.12 48 985.2
20260503200927 63 55 7.8 15.6 0.00 0.12 0.12 49 985.2
20260503200424 63 337 7.0 15.6 0.00 0.12 0.12 53 985.3
20260503195425 62 93 6.1 14.8 0.00 0.12 0.12 55 985.4
20260503194925 61 52 3.5 11.3 0.00 0.12 0.12 62 985.6
20260503194425 60 313 5.2 11.3 0.00 0.12 0.12 65 985.8
20260503193926 59 94 4.3 9.6 0.00 0.12 0.12 68 985.9
20260503193424 58 55 4.3 11.3 0.00 0.12 0.12 69 986.0
20260503192925 57 25 3.5 11.3 0.01 0.12 0.12 70 986.0
20260503191925 55 24 4.3 10.4 0.03 0.12 0.12 73 986.4
20260503190926 54 250 3.5 9.6 0.05 0.12 0.12 80 986.6
20260503190423 53 185 0.9 9.6 0.06 0.12 0.12 82 986.7
20260503185925 52 168 1.7 7.8 0.07 0.12 0.12 85 986.8
20260503185424 51 333 3.5 7.8 0.07 0.12 0.12 87 986.9
20260503184925 49 30 1.7 6.1 0.07 0.12 0.12 87 987.0
20260503184424 49 28 1.7 6.1 0.07 0.12 0.12 87 987.1
20260503183424 49 309 1.7 6.1 0.08 0.12 0.12 87 987.2
20260503182924 49 281 2.6 6.1 0.07 0.11 0.11 86 987.7
20260503181925 49 158 0.9 5.2 0.05 0.09 0.09 85 988.6
20260503181423 49 326 0.9 7.8 0.05 0.08 0.08 85 989.0
20260503180924 49 86 0.9 7.8 0.04 0.07 0.07 85 989.3
20260503175924 49 162 1.7 5.2 0.03 0.05 0.05 87 989.4
20260503175422 49 116 1.7 11.3 0.04 0.05 0.05 89 989.4
20260503174922 49 52 0.9 11.3 0.04 0.05 0.05 91 989.5
20260503174423 48 123 1.7 5.2 0.05 0.05 0.05 92 989.6
20260503173924 48 111 1.7 6.1 0.05 0.05 0.05 92 989.6
20260503171923 48 97 1.7 7.8 0.04 0.04 0.04 92 989.9
20260503171421 48 159 0.9 9.6 0.03 0.03 0.03 91 990.0
20260503170922 48 51 2.6 9.6 0.03 0.03 0.03 90 990.1
20260503170421 48 152 4.3 9.6 0.02 0.02 0.02 88 990.1
20260503131259 0 0.0 0.0 0.00 0.00 0.00
20260503130258 0 0.0 0.0 0.00 0.00 0.00
20260503110244 0 0.0 0.0 0.00 0.00 0.00
20260503100232 0 0.0 0.0 0.00 0.00 0.00
20260503090231 0 0.0 0.0 0.00 0.00 0.00
20260503080731 0 0.0 0.0 0.00 0.00 0.00
20260503080231 0 0.0 0.0 0.00 0.00 0.00
20260503072729 0 0.0 0.0 0.00 0.00 0.00
20260503072229 0 0.0 0.0 0.00 0.00 0.00
20260503071728 0 0.0 0.0 0.00 0.00 0.00
20260503071228 0 0.0 0.0 0.00 0.00 0.00
20260503070728 0 0.0 0.0 0.00 0.00 0.00
20260503070229 0 0.0 0.0 0.00 0.00 0.00
20260503060216 0 0.0 0.0 0.00 0.00 0.00
20260503054718 0 0.0 0.0 0.00 0.00 0.00
20260503053216 0 0.0 0.0 0.00 0.00 0.00
20260503052717 0 0.0 0.0 0.00 0.00 0.00
20260503052216 0 0.0 0.0 0.00 0.00 0.00
20260503051718 0 0.0 0.0 0.00 0.00 0.00
20260503051217 0 0.0 0.0 0.00 0.00 0.00
20260503050717 0 0.0 0.0 0.00 0.00 0.00
20260503050216 0 0.0 0.0 0.00 0.00 0.00
20260503045718 0 0.0 0.0 0.00 0.00 0.00
20260503045218 0 0.0 0.0 0.00 0.00 0.00
20260503044717 0 0.0 0.0 0.00 0.00 0.00
20260503044216 0 0.0 0.0 0.00 0.00 0.00
20260503043718 0 0.0 0.0 0.00 0.00 0.00
20260503043217 0 0.0 0.0 0.00 0.00 0.00
20260503042717 0 0.0 0.0 0.00 0.00 0.00
20260503042216 0 0.0 0.0 0.00 0.00 0.00
20260503041216 0 0.0 0.0 0.00 0.00 0.00
20260503040718 0 0.0 0.0 0.00 0.00 0.00
20260503040217 0 0.0 0.0 0.00 0.00 0.00
20260503035718 0 0.0 0.0 0.00 0.00 0.00
20260503035216 0 0.0 0.0 0.00 0.00 0.00
20260503034717 0 0.0 0.0 0.00 0.00 0.00
20260503033718 0 0.0 0.0 0.00 0.00 0.00
20260503032719 0 0.0 0.0 0.00 0.00 0.00
20260503032217 0 0.0 0.0 0.00 0.00 0.00
20260503030216 0 0.0 0.0 0.00 0.00 0.00
20260503025718 0 0.0 0.0 0.00 0.00 0.00
20260503025217 0 0.0 0.0 0.00 0.00 0.00
20260503024216 0 0.0 0.0 0.00 0.00 0.00
20260503023718 0 0.0 0.0 0.00 0.00 0.00
20260503023217 0 0.0 0.0 0.00 0.00 0.00
20260503022718 0 0.0 0.0 0.00 0.00 0.00
20260503022217 0 0.0 0.0 0.00 0.00 0.00
20260503021216 0 0.0 0.0 0.00 0.00 0.00
20260503020718 0 0.0 0.0 0.00 0.00 0.00
20260503020217 0 0.0 0.0 0.00 0.00 0.00
20260503015718 0 0.0 0.0 0.00 0.00 0.00
20260503015216 0 0.0 0.0 0.00 0.00 0.00
20260503014217 0 0.0 0.0 0.00 0.00 0.00
20260503013718 0 0.0 0.0 0.00 0.00 0.00
20260503013216 0 0.0 0.0 0.00 0.00 0.00
20260503012217 0 0.0 0.0 0.00 0.00 0.00
20260503011717 0 0.0 0.0 0.00 0.00 0.00
20260503011216 0 0.0 0.0 0.00 0.00 0.00
20260503010718 50 128 0.0 0.0 0.00 0.00 0.00 49 992.4
20260503010217 50 128 0.0 0.0 0.00 0.00 0.00 49 992.4
20260503005712 50 128 0.0 0.9 0.00 0.00 0.00 48 992.5
20260503005211 51 128 0.0 0.9 0.00 0.00 0.00 47 992.5
20260503004712 51 128 0.0 0.9 0.00 0.00 0.00 46 992.5
20260503003712 52 110 0.0 6.1 0.00 0.00 0.00 44 992.5
20260503003212 53 168 1.7 6.1 0.00 0.00 0.00 44 992.5
20260503002711 53 137 0.0 2.6 0.00 0.00 0.00 44 992.5
20260503002210 54 147 0.0 2.6 0.00 0.00 0.00 42 992.5
20260503001712 55 147 0.9 2.6 0.00 0.00 0.00 41 992.5
20260503001210 56 152 0.0 2.6 0.00 0.00 0.00 40 992.5
20260503000711 57 123 0.0 1.7 0.00 0.00 0.00 40 992.5
20260503000211 57 102 0.9 1.7 0.00 0.00 0.00 39 992.5
20260502235210 56 116 0.0 2.6 0.00 0.00 0.00 39 992.5
20260502234209 55 131 0.0 1.7 0.00 0.00 0.00 39 992.6
20260502233707 55 148 0.0 1.7 0.00 0.00 0.00 41 992.6
20260502232704 54 148 0.0 4.3 0.00 0.00 0.00 42 992.8
20260502232203 54 179 1.7 5.2 0.00 0.00 0.00 41 992.8
20260502231204 54 171 0.0 1.7 0.00 0.00 0.00 41 992.8
20260502230704 54 116 0.0 1.7 0.00 0.00 0.00 40 992.8
20260502230204 54 116 0.0 1.7 0.00 0.00 0.00 41 992.8
20260502225704 54 114 0.0 1.7 0.00 0.00 0.00 40 992.8
20260502225203 54 145 0.9 3.5 0.00 0.00 0.00 40 992.8
20260502224703 54 154 0.0 6.1 0.00 0.00 0.00 39 992.8
20260502224204 54 164 3.5 6.1 0.00 0.00 0.00 39 992.8
20260502223704 54 131 1.7 3.5 0.00 0.00 0.00 40 992.9
20260502223202 54 172 0.0 3.5 0.00 0.00 0.00 40 992.9
20260502222703 55 147 0.9 4.3 0.00 0.00 0.00 41 992.8
20260502222203 55 120 1.7 5.2 0.00 0.00 0.00 38 992.9
20260502221203 55 134 0.9 2.6 0.00 0.00 0.00 38 992.9
20260502220704 56 140 0.0 3.5 0.00 0.00 0.00 37 992.9
20260502220202 57 65 0.9 7.8 0.00 0.00 0.00 37 992.9
20260502215704 57 133 1.7 7.8 0.00 0.00 0.00 37 992.9
20260502215202 57 166 0.9 4.3 0.00 0.00 0.00 36 993.0
20260502214704 57 140 1.7 5.2 0.00 0.00 0.00 37 993.0
20260502214203 57 120 0.9 6.1 0.00 0.00 0.00 38 993.0
20260502213704 57 117 1.7 6.1 0.00 0.00 0.00 38 993.1